| time (UTC) | temp F | wind direction | speed knots | gust knots | rain 1hr in | rain 24hr in | rain mn in | humidity % | barometer mb |
| 20260506163603 | 58 | 70 | 2.6 | 3.5 | 0.00 | 0.00 | 0.00 | 45 | 1016.3 |
| 20260506162703 | 58 | 88 | 2.6 | 4.3 | 0.00 | 0.00 | 0.00 | 46 | 1016.4 |
| 20260506161803 | 59 | 24 | 1.7 | 4.3 | 0.00 | 0.00 | 0.00 | 44 | 1016.2 |
| 20260506160903 | 59 | 62 | 1.7 | 3.5 | 0.00 | 0.00 | 0.00 | 43 | 1016.3 |
| 20260506160004 | 60 | 63 | 2.6 | 3.5 | 0.00 | 0.00 | 0.00 | 43 | 1016.1 |
| 20260506155403 | 60 | 63 | 1.7 | 2.6 | 0.00 | 0.00 | 0.00 | 44 | 1016.1 |
| 20260506154503 | 60 | 53 | 3.5 | 6.1 | 0.00 | 0.00 | 0.00 | 42 | 1016.4 |
| 20260506153603 | 61 | 74 | 1.7 | 4.3 | 0.00 | 0.00 | 0.00 | 40 | 1016.4 |
| 20260506152912 | 62 | 87 | 2.6 | 3.5 | 0.00 | 0.00 | 0.00 | 41 | 1016.5 |
| 20260506151803 | 62 | 31 | 3.5 | 7.0 | 0.00 | 0.00 | 0.00 | 42 | 1016.3 |
| 20260506150903 | 63 | 311 | 3.5 | 5.2 | 0.00 | 0.00 | 0.00 | 40 | 1016.4 |
| 20260506150214 | 63 | 290 | 3.5 | 7.0 | 0.00 | 0.00 | 0.00 | 41 | 1016.4 |
| 20260506145403 | 63 | 340 | 3.5 | 7.0 | 0.00 | 0.00 | 0.00 | 41 | 1016.4 |
| 20260506144713 | 63 | 106 | 2.6 | 3.5 | 0.00 | 0.00 | 0.00 | 42 | 1016.5 |
| 20260506143603 | 61 | 340 | 2.6 | 5.2 | 0.00 | 0.00 | 0.00 | 43 | 1016.7 |
| 20260506142703 | 60 | 357 | 2.6 | 3.5 | 0.00 | 0.00 | 0.00 | 44 | 1016.6 |
| 20260506141803 | 59 | 41 | 2.6 | 3.5 | 0.00 | 0.00 | 0.00 | 47 | 1016.9 |
| 20260506140903 | 59 | 343 | 2.6 | 3.5 | 0.00 | 0.00 | 0.00 | 45 | 1016.8 |
| 20260506140003 | 58 | 31 | 2.6 | 3.5 | 0.00 | 0.00 | 0.00 | 47 | 1016.9 |
| 20260506135403 | 58 | 11 | 2.6 | 3.5 | 0.00 | 0.00 | 0.00 | 47 | 1016.9 |
| 20260506134503 | 58 | 100 | 2.6 | 3.5 | 0.00 | 0.00 | 0.00 | 47 | 1016.8 |
| 20260506133603 | 58 | 36 | 2.6 | 4.3 | 0.00 | 0.00 | 0.00 | 47 | 1017.0 |
| 20260506132703 | 58 | 38 | 2.6 | 4.3 | 0.00 | 0.00 | 0.00 | 48 | 1017.3 |
| 20260506132013 | 58 | 352 | 2.6 | 5.2 | 0.00 | 0.00 | 0.00 | 49 | 1017.1 |
| 20260506130903 | 58 | 71 | 2.6 | 5.2 | 0.00 | 0.00 | 0.00 | 50 | 1017.1 |
| 20260506130004 | 58 | 1 | 3.5 | 5.2 | 0.00 | 0.00 | 0.00 | 50 | 1017.0 |
| 20260506125403 | 57 | 14 | 3.5 | 5.2 | 0.00 | 0.00 | 0.00 | 50 | 1017.0 |
| 20260506124503 | 57 | 91 | 2.6 | 4.3 | 0.00 | 0.00 | 0.00 | 50 | 1017.0 |
| 20260506123603 | 56 | 15 | 2.6 | 4.3 | 0.00 | 0.00 | 0.00 | 51 | 1017.1 |
| 20260506122913 | 56 | 41 | 3.5 | 5.2 | 0.00 | 0.00 | 0.00 | 51 | 1017.1 |
| 20260506121803 | 56 | 45 | 3.5 | 5.2 | 0.00 | 0.00 | 0.00 | 51 | 1017.0 |
| 20260506120903 | 55 | 27 | 3.5 | 4.3 | 0.00 | 0.00 | 0.00 | 51 | 1017.2 |
| 20260506120004 | 55 | 72 | 3.5 | 5.2 | 0.00 | 0.00 | 0.00 | 52 | 1017.0 |
| 20260506115613 | 55 | 97 | 3.5 | 5.2 | 0.00 | 0.00 | 0.00 | 52 | 1017.0 |
| 20260506114503 | 55 | 50 | 3.5 | 5.2 | 0.00 | 0.00 | 0.00 | 53 | 1017.1 |
| 20260506113603 | 54 | 61 | 3.5 | 4.3 | 0.00 | 0.00 | 0.00 | 60 | 1017.2 |
| 20260506112703 | 54 | 337 | 3.5 | 5.2 | 0.00 | 0.00 | 0.00 | 61 | 1017.3 |
| 20260506111803 | 54 | 345 | 3.5 | 5.2 | 0.00 | 0.00 | 0.00 | 61 | 1017.0 |
| 20260506110903 | 53 | 332 | 3.5 | 5.2 | 0.00 | 0.00 | 0.00 | 61 | 1017.2 |
| 20260506110003 | 53 | 39 | 4.3 | 6.1 | 0.00 | 0.00 | 0.00 | 61 | 1017.3 |
| 20260506105612 | 53 | 9 | 3.5 | 6.1 | 0.00 | 0.00 | 0.00 | 61 | 1017.2 |
| 20260506104714 | 54 | 7 | 2.6 | 3.5 | 0.00 | 0.00 | 0.00 | 62 | 1017.2 |
| 20260506103603 | 53 | 18 | 3.5 | 5.2 | 0.00 | 0.00 | 0.00 | 61 | 1017.2 |
| 20260506102913 | 53 | 30 | 3.5 | 5.2 | 0.00 | 0.00 | 0.00 | 63 | 1017.1 |
| 20260506101803 | 53 | 55 | 4.3 | 6.1 | 0.00 | 0.00 | 0.00 | 62 | 1017.3 |
| 20260506100903 | 52 | 79 | 3.5 | 4.3 | 0.00 | 0.00 | 0.00 | 62 | 1017.3 |
| 20260506100003 | 52 | 66 | 4.3 | 6.1 | 0.00 | 0.00 | 0.00 | 64 | 1017.3 |
| 20260506095403 | 52 | 48 | 4.3 | 6.1 | 0.00 | 0.00 | 0.00 | 64 | 1017.3 |
| 20260506094713 | 52 | 33 | 3.5 | 5.2 | 0.00 | 0.00 | 0.00 | 65 | 1017.2 |
| 20260506093603 | 51 | 72 | 5.2 | 6.1 | 0.00 | 0.00 | 0.00 | 68 | 1017.1 |
| 20260506092703 | 51 | 63 | 5.2 | 7.0 | 0.00 | 0.00 | 0.00 | 70 | 1017.2 |
| 20260506091803 | 51 | 38 | 5.2 | 7.0 | 0.00 | 0.00 | 0.00 | 72 | 1017.1 |
| 20260506090903 | 51 | 64 | 5.2 | 7.8 | 0.00 | 0.00 | 0.00 | 72 | 1017.0 |
| 20260506090003 | 50 | 76 | 5.2 | 7.8 | 0.00 | 0.00 | 0.00 | 72 | 1017.1 |
| 20260506085403 | 50 | 67 | 4.3 | 7.0 | 0.00 | 0.00 | 0.00 | 71 | 1017.1 |
| 20260506084503 | 50 | 53 | 4.3 | 7.0 | 0.00 | 0.00 | 0.00 | 71 | 1017.0 |
| 20260506083812 | 51 | 82 | 4.3 | 5.2 | 0.00 | 0.00 | 0.00 | 72 | 1016.9 |
| 20260506082703 | 50 | 66 | 5.2 | 7.0 | 0.00 | 0.00 | 0.00 | 72 | 1017.2 |
| 20260506081803 | 49 | 78 | 5.2 | 7.0 | 0.00 | 0.00 | 0.00 | 72 | 1017.1 |
| 20260506081112 | 49 | 59 | 5.2 | 7.0 | 0.00 | 0.00 | 0.00 | 72 | 1016.8 |
| 20260506072913 | 49 | 77 | 4.3 | 6.1 | 0.00 | 0.00 | 0.00 | 78 | 1016.5 |
| 20260506072013 | 49 | 25 | 4.3 | 5.2 | 0.00 | 0.00 | 0.00 | 79 | 1016.7 |
| 20260506070903 | 48 | 85 | 4.3 | 5.2 | 0.00 | 0.00 | 0.00 | 80 | 1016.8 |
| 20260506070213 | 48 | 93 | 4.3 | 5.2 | 0.00 | 0.00 | 0.00 | 80 | 1016.6 |
| 20260506061803 | 48 | 46 | 3.5 | 5.2 | 0.00 | 0.00 | 0.00 | 79 | 1016.6 |
| 20260506060903 | 49 | 58 | 3.5 | 4.3 | 0.00 | 0.00 | 0.00 | 79 | 1016.2 |
| 20260506060213 | 49 | 36 | 3.5 | 4.3 | 0.00 | 0.00 | 0.00 | 78 | 1016.5 |
| 20260506050903 | 49 | 59 | 4.3 | 6.1 | 0.00 | 0.00 | 0.00 | 80 | 1016.2 |
| 20260506050213 | 49 | 71 | 4.3 | 6.1 | 0.00 | 0.00 | 0.00 | 80 | 1016.2 |
| 20260506044503 | 49 | 74 | 2.6 | 3.5 | 0.00 | 0.00 | 0.00 | 80 | 1016.2 |
| 20260506043603 | 49 | 14 | 1.7 | 4.3 | 0.00 | 0.00 | 0.00 | 80 | 1016.1 |
| 20260506042912 | 49 | 48 | 2.6 | 4.3 | 0.00 | 0.00 | 0.00 | 80 | 1015.9 |
| 20260506041803 | 49 | 1 | 2.6 | 3.5 | 0.00 | 0.00 | 0.00 | 80 | 1015.9 |
| 20260506040903 | 49 | 40 | 2.6 | 3.5 | 0.00 | 0.00 | 0.00 | 80 | 1016.2 |
| 20260506040003 | 49 | 27 | 2.6 | 3.5 | 0.00 | 0.00 | 0.00 | 80 | 1015.9 |
| 20260506035614 | 49 | 30 | 2.6 | 3.5 | 0.00 | 0.00 | 0.00 | 80 | 1015.8 |
| 20260506034713 | 49 | 64 | 2.6 | 2.6 | 0.00 | 0.00 | 0.00 | 80 | 1015.7 |
| 20260506033603 | 49 | 81 | 1.7 | 2.6 | 0.00 | 0.00 | 0.00 | 80 | 1015.8 |
| 20260506032703 | 49 | 48 | 1.7 | 2.6 | 0.00 | 0.00 | 0.00 | 80 | 1015.7 |
| 20260506031803 | 49 | 87 | 1.7 | 2.6 | 0.00 | 0.00 | 0.00 | 80 | 1015.9 |
| 20260506030903 | 49 | 14 | 1.7 | 2.6 | 0.00 | 0.00 | 0.00 | 80 | 1016.1 |
| 20260506030003 | 49 | 62 | 1.7 | 2.6 | 0.00 | 0.00 | 0.00 | 80 | 1015.8 |
| 20260506025403 | 49 | 66 | 2.6 | 2.6 | 0.00 | 0.00 | 0.00 | 80 | 1015.9 |
| 20260506024503 | 49 | 42 | 1.7 | 2.6 | 0.00 | 0.00 | 0.00 | 79 | 1016.2 |
| 20260506023603 | 49 | 58 | 1.7 | 2.6 | 0.00 | 0.00 | 0.00 | 79 | 1016.0 |
| 20260506022703 | 49 | 42 | 1.7 | 2.6 | 0.00 | 0.00 | 0.00 | 78 | 1015.8 |
| 20260506021803 | 49 | 32 | 1.7 | 3.5 | 0.00 | 0.00 | 0.00 | 78 | 1016.1 |
| 20260506020903 | 49 | 22 | 2.6 | 3.5 | 0.00 | 0.00 | 0.00 | 77 | 1015.9 |
| 20260506020003 | 49 | 25 | 1.7 | 2.6 | 0.00 | 0.00 | 0.00 | 77 | 1015.9 |
| 20260506015613 | 49 | 37 | 2.6 | 2.6 | 0.00 | 0.00 | 0.00 | 76 | 1016.1 |
| 20260506014503 | 49 | 32 | 1.7 | 2.6 | 0.00 | 0.00 | 0.00 | 76 | 1016.0 |
| 20260506013603 | 50 | 58 | 1.7 | 2.6 | 0.00 | 0.00 | 0.00 | 76 | 1016.0 |
| 20260506012703 | 50 | 38 | 1.7 | 2.6 | 0.00 | 0.00 | 0.00 | 76 | 1016.0 |
| 20260506011803 | 49 | 354 | 1.7 | 1.7 | 0.00 | 0.00 | 0.00 | 75 | 1016.1 |
| 20260506011114 | 50 | 352 | 1.7 | 2.6 | 0.00 | 0.00 | 0.00 | 75 | 1016.3 |
| 20260506010004 | 50 | 346 | 2.6 | 3.5 | 0.00 | 0.00 | 0.00 | 76 | 1016.2 |
| 20260506005403 | 50 | 25 | 2.6 | 3.5 | 0.00 | 0.00 | 0.00 | 76 | 1016.3 |
| 20260506004503 | 50 | 27 | 1.7 | 3.5 | 0.00 | 0.00 | 0.00 | 76 | 1016.5 |
| 20260506003603 | 50 | 69 | 1.7 | 2.6 | 0.00 | 0.00 | 0.00 | 75 | 1016.5 |
| 20260506002703 | 50 | 55 | 1.7 | 2.6 | 0.00 | 0.00 | 0.00 | 75 | 1016.5 |
| 20260506001803 | 50 | 18 | 1.7 | 3.5 | 0.00 | 0.00 | 0.00 | 75 | 1016.4 |
| 20260506000903 | 50 | 55 | 1.7 | 3.5 | 0.00 | 0.00 | 0.00 | 75 | 1016.3 |
| 20260506000003 | 50 | 48 | 1.7 | 3.5 | 0.00 | 0.00 | 0.00 | 74 | 1016.4 |
| 20260505235403 | 50 | 54 | 1.7 | 2.6 | 0.00 | 0.00 | 0.00 | 74 | 1016.7 |
| 20260505234503 | 50 | 28 | 1.7 | 2.6 | 0.00 | 0.00 | 0.00 | 74 | 1016.3 |
| 20260505233603 | 50 | 16 | 1.7 | 2.6 | 0.00 | 0.00 | 0.00 | 74 | 1016.4 |
| 20260505232703 | 50 | 6 | 1.7 | 2.6 | 0.00 | 0.00 | 0.00 | 73 | 1016.6 |
| 20260505231803 | 51 | 348 | 2.6 | 3.5 | 0.00 | 0.00 | 0.00 | 73 | 1016.2 |
| 20260505231113 | 51 | 351 | 1.7 | 3.5 | 0.00 | 0.00 | 0.00 | 73 | 1016.5 |
| 20260505230004 | 51 | 342 | 2.6 | 4.3 | 0.00 | 0.00 | 0.00 | 72 | 1016.6 |
| 20260505225403 | 51 | 5 | 1.7 | 1.7 | 0.00 | 0.00 | 0.00 | 72 | 1016.8 |
| 20260505224503 | 51 | 39 | 1.7 | 2.6 | 0.00 | 0.00 | 0.00 | 72 | 1016.7 |
| 20260505223603 | 51 | 57 | 1.7 | 2.6 | 0.00 | 0.00 | 0.00 | 72 | 1016.6 |
| 20260505222703 | 51 | 66 | 1.7 | 2.6 | 0.00 | 0.00 | 0.00 | 71 | 1016.7 |
| 20260505222013 | 51 | 11 | 1.7 | 2.6 | 0.00 | 0.00 | 0.00 | 71 | 1016.7 |
| 20260505220903 | 51 | 12 | 1.7 | 3.5 | 0.00 | 0.00 | 0.00 | 71 | 1016.6 |
| 20260505220003 | 51 | 5 | 2.6 | 3.5 | 0.00 | 0.00 | 0.00 | 71 | 1016.6 |
| 20260505215403 | 51 | 74 | 1.7 | 2.6 | 0.00 | 0.00 | 0.00 | 71 | 1016.6 |
| 20260505214713 | 51 | 40 | 2.6 | 3.5 | 0.00 | 0.00 | 0.00 | 70 | 1016.6 |
| 20260505213603 | 51 | 40 | 2.6 | 3.5 | 0.00 | 0.00 | 0.00 | 70 | 1016.7 |
| 20260505212703 | 51 | 54 | 2.6 | 3.5 | 0.00 | 0.00 | 0.00 | 70 | 1016.6 |
| 20260505211803 | 52 | 38 | 2.6 | 4.3 | 0.00 | 0.00 | 0.00 | 70 | 1016.9 |
| 20260505210903 | 52 | 85 | 2.6 | 3.5 | 0.00 | 0.00 | 0.00 | 70 | 1016.8 |
| 20260505210003 | 52 | 98 | 2.6 | 4.3 | 0.00 | 0.00 | 0.00 | 70 | 1016.8 |
| 20260505205403 | 52 | 79 | 2.6 | 4.3 | 0.00 | 0.00 | 0.00 | 70 | 1016.7 |
| 20260505204503 | 52 | 359 | 3.5 | 4.3 | 0.00 | 0.00 | 0.00 | 70 | 1016.7 |
| 20260505203603 | 52 | 19 | 2.6 | 4.3 | 0.00 | 0.00 | 0.00 | 69 | 1016.6 |
| 20260505202913 | 53 | 13 | 2.6 | 3.5 | 0.00 | 0.00 | 0.00 | 69 | 1016.7 |
| 20260505202013 | 53 | 65 | 2.6 | 3.5 | 0.00 | 0.00 | 0.00 | 68 | 1016.6 |
| 20260505200903 | 53 | 27 | 2.6 | 3.5 | 0.00 | 0.00 | 0.00 | 67 | 1016.3 |
| 20260505200003 | 53 | 68 | 2.6 | 3.5 | 0.00 | 0.00 | 0.00 | 67 | 1016.3 |
| 20260505195613 | 53 | 95 | 2.6 | 3.5 | 0.00 | 0.00 | 0.00 | 67 | 1016.4 |
| 20260505194503 | 54 | 68 | 3.5 | 4.3 | 0.00 | 0.00 | 0.00 | 66 | 1016.1 |
| 20260505193603 | 54 | 52 | 3.5 | 4.3 | 0.00 | 0.00 | 0.00 | 66 | 1016.0 |
| 20260505192913 | 54 | 53 | 3.5 | 5.2 | 0.00 | 0.00 | 0.00 | 66 | 1016.1 |
| 20260505191803 | 55 | 46 | 2.6 | 3.5 | 0.00 | 0.00 | 0.00 | 62 | 1016.0 |
| 20260505191113 | 55 | 4 | 2.6 | 3.5 | 0.00 | 0.00 | 0.00 | 62 | 1016.1 |
| 20260505190213 | 55 | 338 | 3.5 | 5.2 | 0.00 | 0.00 | 0.00 | 61 | 1015.9 |
| 20260505185612 | 55 | 327 | 3.5 | 4.3 | 0.00 | 0.00 | 0.00 | 61 | 1016.1 |
| 20260505184503 | 55 | 25 | 2.6 | 3.5 | 0.00 | 0.00 | 0.00 | 61 | 1016.0 |
| 20260505183813 | 55 | 332 | 3.5 | 6.1 | 0.00 | 0.00 | 0.00 | 61 | 1015.9 |
| 20260505182703 | 55 | 335 | 3.5 | 6.1 | 0.00 | 0.00 | 0.00 | 61 | 1015.8 |
| 20260505181803 | 56 | 317 | 4.3 | 7.0 | 0.00 | 0.00 | 0.00 | 61 | 1015.7 |
| 20260505180903 | 56 | 327 | 5.2 | 7.8 | 0.00 | 0.00 | 0.00 | 60 | 1015.8 |
| 20260505180003 | 57 | 334 | 5.2 | 7.8 | 0.00 | 0.00 | 0.00 | 56 | 1016.0 |
| 20260505175403 | 57 | 140 | 5.2 | 7.0 | 0.00 | 0.00 | 0.00 | 55 | 1015.8 |
| 20260505174504 | 58 | 319 | 5.2 | 9.6 | 0.00 | 0.00 | 0.00 | 55 | 1015.7 |
| 20260505173813 | 58 | 325 | 5.2 | 9.6 | 0.00 | 0.00 | 0.00 | 54 | 1015.8 |
| 20260505172703 | 58 | 336 | 7.0 | 9.6 | 0.00 | 0.00 | 0.00 | 52 | 1015.8 |
| 20260505171803 | 58 | 12 | 6.1 | 7.8 | 0.00 | 0.00 | 0.00 | 52 | 1016.1 |
| 20260505170903 | 59 | 54 | 6.1 | 9.6 | 0.00 | 0.00 | 0.00 | 51 | 1016.0 |
| 20260505170212 | 60 | 22 | 5.2 | 9.6 | 0.00 | 0.00 | 0.00 | 51 | 1015.7 |
| 20260505165403 | 60 | 333 | 6.1 | 9.6 | 0.00 | 0.00 | 0.00 | 51 | 1016.0 |
| 20260505164503 | 60 | 15 | 6.1 | 8.7 | 0.00 | 0.00 | 0.00 | 51 | 1015.8 |